Change the Weather History Date:

Tuesday, July 1, 2014

  Actual Average Record
Temperature  
Mean Temperature 85 °F 82 °F  
Max Temperature 93 °F 91 °F 99 °F (1998)
Min Temperature 76 °F 73 °F 64 °F (1981)
Degree Days  
Heating Degree Days 0 0  
Month to date heating degree days 0 0  
Since 1 June heating degree days 0 0  
Since 1 July heating degree days 0 0  
Cooling Degree Days 20 17  
Month to date cooling degree days 20 17  
Year to date cooling degree days 1457 1308  
Since 1 June cooling degree days 523 507  
Growing Degree Days 35 (Base 50)    
Moisture  
Dew Point 74 °F    
Average Humidity 72    
Maximum Humidity 94    
Minimum Humidity 49    
Precipitation  
Precipitation T in 0.23 in 3.13 in (1896)
Month to date precipitation T 0.23  
Year to date precipitation 21.99 22.44  
Sea Level Pressure  
Sea Level Pressure 29.91 in    
Wind  
Wind Speed 13 mph (North)    
Max Wind Speed 28 mph    
Max Gust Speed 36 mph    
Visibility 10 miles    
Events      
T = Trace of Precipitation, MM = Missing Value Source: NWS Daily Summary

Daily Weather History Graph

Daily Weather History Graph

Search for Another Location

Airport or City:

Trip Planner

Search our weather history database for the weather conditions in past years. The results will help you decide how hot, cold, wet, or windy it might be!

Date:

Astronomy

Jul. 01, 2014 Rise Set
Actual Time 6:31 AM EDT 8:26 PM EDT
Civil Twilight 6:04 AM EDT 8:53 PM EDT
Nautical Twilight 5:32 AM EDT 9:25 PM EDT
Astronomical Twilight 4:57 AM EDT 10:00 PM EDT
Moon 10:17 AM EDT (7/1) 11:12 PM EDT (7/1)
Length of Visible Light 14h 48m
Length of Day
13h 55m
Waxing Crescent, 16% of the Moon is Illuminated
Jul 1
Waxing Crescent
Jul 5
First Quarter
Jul 12
Full
Jul 18
Last Quarter
Jul 26
New

Hourly Weather History & Observations

Time (EDT) Temp. Heat Index Dew Point Humidity Pressure Visibility Wind Dir Wind Speed Gust Speed Precip Events Conditions
12:53 AM 79.0 °F - 75.0 °F 88% 29.95 in 10.0 mi NNW 6.9 mph - N/A   Scattered Clouds
1:53 AM 80.1 °F 85.4 °F 75.9 °F 87% 29.94 in 10.0 mi NW 8.1 mph - N/A   Scattered Clouds
2:53 AM 78.1 °F - 75.0 °F 90% 29.92 in 10.0 mi NW 6.9 mph - N/A   Scattered Clouds
3:53 AM 78.1 °F - 75.0 °F 90% 29.90 in 10.0 mi NW 5.8 mph - N/A   Partly Cloudy
4:53 AM 77.0 °F - 75.9 °F 96% 29.91 in 10.0 mi NW 6.9 mph - N/A   Partly Cloudy
5:53 AM 77.0 °F - 75.0 °F 94% 29.90 in 10.0 mi NNW 6.9 mph - N/A   Scattered Clouds
6:19 AM 77.0 °F - 75.0 °F 94% 29.91 in 10.0 mi NW 6.9 mph - N/A   Scattered Clouds
6:53 AM 77.0 °F - 75.0 °F 94% 29.91 in 10.0 mi NNW 8.1 mph - N/A   Scattered Clouds
7:53 AM 80.1 °F 85.4 °F 75.9 °F 87% 29.93 in 10.0 mi NNW 12.7 mph - N/A   Scattered Clouds
8:53 AM 82.0 °F 89.4 °F 75.9 °F 82% 29.94 in 10.0 mi North 13.8 mph - N/A   Scattered Clouds
9:53 AM 86.0 °F 95.1 °F 75.0 °F 70% 29.93 in 10.0 mi North 15.0 mph - N/A   Scattered Clouds
10:53 AM 88.0 °F 95.6 °F 73.0 °F 61% 29.91 in 10.0 mi North 18.4 mph - N/A   Scattered Clouds
11:53 AM 89.1 °F 97.0 °F 73.0 °F 59% 29.93 in 10.0 mi North 15.0 mph 21.9 mph N/A   Scattered Clouds
12:53 PM 91.0 °F 97.6 °F 71.1 °F 52% 29.91 in 10.0 mi NNE 15.0 mph - N/A   Scattered Clouds
1:53 PM 91.9 °F 98.4 °F 71.1 °F 50% 29.91 in 10.0 mi NNE 20.7 mph 25.3 mph N/A   Mostly Cloudy
2:53 PM 93.0 °F 100.7 °F 72.0 °F 50% 29.89 in 10.0 mi NNE 18.4 mph - N/A   Mostly Cloudy
3:53 PM 90.0 °F 96.9 °F 72.0 °F 55% 29.88 in 10.0 mi NNE 23.0 mph 29.9 mph 0.00 in   Mostly Cloudy
4:53 PM 84.0 °F 90.2 °F 73.0 °F 69% 29.88 in 9.0 mi NE 21.9 mph 29.9 mph N/A   Mostly Cloudy
5:53 PM 84.9 °F 90.7 °F 72.0 °F 65% 29.87 in 10.0 mi NE 15.0 mph 24.2 mph N/A   Mostly Cloudy
6:53 PM 84.0 °F 89.6 °F 72.0 °F 67% 29.87 in 10.0 mi NNE 11.5 mph - N/A   Mostly Cloudy
7:53 PM 82.0 °F 87.4 °F 73.0 °F 74% 29.90 in 10.0 mi NNE 13.8 mph - N/A   Mostly Cloudy
8:53 PM 82.0 °F 87.4 °F 73.0 °F 74% 29.91 in 10.0 mi NNE 12.7 mph - N/A   Mostly Cloudy
9:53 PM 80.1 °F 83.8 °F 72.0 °F 76% 29.92 in 10.0 mi NE 18.4 mph 26.5 mph N/A   Mostly Cloudy
10:53 PM 77.0 °F - 72.0 °F 84% 29.91 in 10.0 mi North 6.9 mph - 0.00 in   Mostly Cloudy
11:53 PM 77.0 °F - 73.9 °F 90% 29.93 in 10.0 mi NNW 6.9 mph - N/A   Mostly Cloudy